Location: Jaworzyna Śląska
(50.9128°N, 16.4318°E)
Time: 21:58:04
(UTC+01:00)

ISS - Pass Details

Date: 02 February 2019
Orbit: 403 x 411 km, 51.6° (Epoch: 22 February)

Event Time Altitude Azimuth Distance (km) Brightness Sun altitude
Rises 18:03:46 0° 276° (W) 2,335 1.6 -12.3°
Reaches altitude 10° 18:05:51 10° 278° (W) 1,476 0.3 -12.6°
Maximum altitude 18:09:10 79° 5° (N) 423 -3.8 -13.1°
Enters shadow 18:10:55 25° 89° (E) 863 -2.8 -13.4°
